{"data":{"norad_id":52304,"intl_designator":"2022-041AV","name":"STARLINK-3744","alt_names":[],"object_type":"PAYLOAD","status":"ACTIVE","operator":null,"country":"US","launch_date":"2022-04-21","launch_site_code":"AFETR","launch_vehicle":null,"mission":null,"orbit_class":"UNKNOWN","rcs_meters":null,"size_class":null,"mass_kg":null,"dimensions":null,"purposes":["comms"],"wikipedia_slug":null,"has_3d_model":false,"image_url":null,"decayed_at":null,"tle_current":{"epoch":"2026-05-25T03:37:37.377120Z","epoch_age_seconds":65181,"freshness":"FRESH","line1":"1 52304U 22041AV  26145.15112705  .00000488  00000+0  48721-4 0  9998","line2":"2 52304  53.2134 105.8732 0001302  79.4820 280.6318 15.08839299226187","mean_motion":15.08839299,"eccentricity":0.0001302,"inclination_deg":53.2134,"raan_deg":105.8732,"arg_perigee_deg":79.482,"mean_anomaly_deg":280.6318,"bstar":4.8721e-5,"rev_number":22618,"period_min":95.437599017627,"perigee_km":538.84482333587,"apogee_km":540.64623994711,"semimajor_km":6917.8825316415,"source":"CELESTRAK","updated_at":"2026-05-25T13:38:17.109833Z"}}}